Weather History for Austin, MN

Change the Weather History Date:

Sunday, March 17, 2013

  Actual Average Record
Temperature  
Mean Temperature 19 °F -  
Max Temperature 28 °F 36 °F 78 °F (2012)
Min Temperature 10 °F 21 °F 10 °F (2013)
Degree Days  
Heating Degree Days 46    
Moisture  
Dew Point 12 °F    
Average Humidity 72    
Maximum Humidity 85    
Minimum Humidity 59    
Precipitation  
Precipitation 0.00 in - - ()
Sea Level Pressure  
Sea Level Pressure 30.07 in    
Wind  
Wind Speed 11 mph (East)    
Max Wind Speed 20 mph    
Max Gust Speed 23 mph    
Visibility 10 miles    
Events      
Averages and records for this station are not official NWS values.
T = Trace of Precipitation, MM = Missing Value Source: NWS Daily Summary

Daily Weather History Graph

Daily Weather History Graph

Search for Another Location

Airport:

Trip Planner

Search our weather history database for the weather conditions in past years. The results will help you decide how hot, cold, wet, or windy it might be!

Date:

Astronomy

Mar. 17, 2013 Rise Set
Actual Time 7:19 AM CDT 7:20 PM CDT
Civil Twilight 6:51 AM CDT 7:49 PM CDT
Nautical Twilight 6:17 AM CDT 8:22 PM CDT
Astronomical Twilight 5:43 AM CDT 8:57 PM CDT
Moon 10:22 AM CDT (3/17) 12:39 AM CDT (3/17)
Length of Visible Light 12h 58m
Length of Day
12h 00m
Waxing Crescent, 31% of the Moon is Illuminated
Mar 17
Waxing Crescent
Mar 19
First Quarter
Mar 27
Full
Apr 2
Last Quarter
Apr 10
New

Hourly Weather History & Observations

Time (CDT) Temp. Windchill Dew Point Humidity Pressure Visibility Wind Dir Wind Speed Gust Speed Precip Events Conditions
12:16 AM 15.8 °F 5.1 °F 10.4 °F 79% 30.19 in 10.0 mi NW 8.1 mph - N/A   Clear
12:35 AM 15.8 °F 4.2 °F 10.4 °F 79% 30.19 in 10.0 mi NW 9.2 mph - N/A   Clear
12:55 AM 15.8 °F 3.4 °F 8.6 °F 73% 30.19 in 10.0 mi NNW 10.4 mph - N/A   Clear
1:16 AM 15.8 °F 5.1 °F 8.6 °F 73% 30.20 in 10.0 mi NW 8.1 mph - N/A   Clear
1:35 AM 15.8 °F 4.2 °F 8.6 °F 73% 30.20 in 10.0 mi NNW 9.2 mph - N/A   Clear
1:55 AM 14.0 °F 0.5 °F 8.6 °F 79% 30.20 in 10.0 mi NNW 11.5 mph - N/A   Clear
2:15 AM 14.0 °F 2.9 °F 8.6 °F 79% 30.19 in 10.0 mi NNW 8.1 mph - N/A   Clear
2:35 AM 12.2 °F 1.7 °F 8.6 °F 85% 30.20 in 10.0 mi NNW 6.9 mph - N/A   Clear
2:55 AM 12.2 °F 2.9 °F 8.6 °F 85% 30.19 in 10.0 mi NNW 5.8 mph - N/A   Clear
3:15 AM 12.2 °F 6.1 °F 6.8 °F 79% 30.19 in 10.0 mi North 3.5 mph - N/A   Clear
3:35 AM 12.2 °F 1.7 °F 6.8 °F 79% 30.18 in 10.0 mi North 6.9 mph - N/A   Clear
3:55 AM 12.2 °F 4.3 °F 6.8 °F 79% 30.18 in 10.0 mi North 4.6 mph - N/A   Clear
4:15 AM 10.4 °F -0.4 °F 6.8 °F 85% 30.17 in 10.0 mi North 6.9 mph - N/A   Clear
4:35 AM 10.4 °F -0.4 °F 5.0 °F 79% 30.16 in 10.0 mi North 6.9 mph - N/A   Clear
4:55 AM 10.4 °F 0.8 °F 5.0 °F 79% 30.15 in 10.0 mi NNE 5.8 mph - N/A   Clear
5:15 AM 10.4 °F -0.4 °F 5.0 °F 79% 30.15 in 10.0 mi NNE 6.9 mph - N/A   Clear
5:35 AM 10.4 °F 0.8 °F 5.0 °F 79% 30.15 in 10.0 mi NNE 5.8 mph - N/A   Clear
5:56 AM 10.4 °F -0.4 °F 3.2 °F 73% 30.15 in 10.0 mi NE 6.9 mph - N/A   Clear
6:15 AM 10.4 °F -0.4 °F 3.2 °F 73% 30.15 in 10.0 mi NE 6.9 mph - N/A   Clear
6:35 AM 10.4 °F -0.4 °F 3.2 °F 73% 30.15 in 10.0 mi NE 6.9 mph - N/A   Clear
6:56 AM 10.4 °F -0.4 °F 3.2 °F 73% 30.15 in 10.0 mi ENE 6.9 mph - N/A   Clear
7:15 AM 10.4 °F 0.8 °F 3.2 °F 73% 30.17 in 10.0 mi ENE 5.8 mph - N/A   Clear
7:35 AM 10.4 °F -0.4 °F 3.2 °F 73% 30.17 in 10.0 mi ENE 6.9 mph - N/A   Clear
7:56 AM 10.4 °F -1.5 °F 3.2 °F 73% 30.17 in 10.0 mi East 8.1 mph - N/A   Clear
8:15 AM 12.2 °F -0.2 °F 3.2 °F 67% 30.17 in 10.0 mi East 9.2 mph - N/A   Clear
8:35 AM 12.2 °F -0.2 °F 3.2 °F 67% 30.17 in 10.0 mi East 9.2 mph - N/A   Clear
8:56 AM 12.2 °F -2.5 °F 5.0 °F 73% 30.17 in 10.0 mi East 12.7 mph - N/A   Clear
9:15 AM 14.0 °F -0.2 °F 5.0 °F 67% 30.17 in 10.0 mi ESE 12.7 mph - N/A   Clear
9:35 AM 15.8 °F 3.4 °F 6.8 °F 68% 30.16 in 10.0 mi ESE 10.4 mph - N/A   Clear
9:56 AM 15.8 °F 0.9 °F 6.8 °F 68% 30.16 in 10.0 mi ESE 15.0 mph - N/A   Clear
10:15 AM 17.6 °F 3.7 °F 6.8 °F 63% 30.16 in 10.0 mi ESE 13.8 mph - N/A   Clear
10:35 AM 17.6 °F 3.7 °F 8.6 °F 68% 30.16 in 10.0 mi ESE 13.8 mph 18.4 mph N/A   Scattered Clouds
10:55 AM 17.6 °F 4.3 °F 8.6 °F 68% 30.14 in 10.0 mi ESE 12.7 mph - N/A   Clear
11:15 AM 19.4 °F 6.0 °F 10.4 °F 68% 30.14 in 10.0 mi SE 13.8 mph - N/A   Clear
11:35 AM 21.2 °F 8.3 °F 10.4 °F 63% 30.13 in 10.0 mi SE 13.8 mph - N/A   Clear
11:55 AM 21.2 °F 7.8 °F 10.4 °F 63% 30.13 in 10.0 mi SE 15.0 mph - N/A   Clear
12:15 PM 21.2 °F 7.8 °F 10.4 °F 63% 30.12 in 10.0 mi SE 15.0 mph - N/A   Clear
12:35 PM 23.0 °F 11.7 °F 12.2 °F 63% 30.11 in 10.0 mi SE 11.5 mph - N/A   Clear
12:55 PM 24.8 °F 12.9 °F 12.2 °F 59% 30.10 in 10.0 mi SE 13.8 mph - N/A   Clear
1:15 PM 24.8 °F 11.9 °F 12.2 °F 59% 30.08 in 10.0 mi SE 16.1 mph - N/A   Scattered Clouds
1:35 PM 24.8 °F 12.9 °F 14.0 °F 64% 30.07 in 10.0 mi SE 13.8 mph - N/A   Scattered Clouds
1:56 PM 24.8 °F 12.4 °F 14.0 °F 64% 30.06 in 10.0 mi ESE 15.0 mph - N/A   Scattered Clouds
2:15 PM 26.6 °F 14.7 °F 14.0 °F 59% 30.04 in 10.0 mi ESE 15.0 mph - N/A   Clear
2:35 PM 26.6 °F 14.3 °F 15.8 °F 64% 30.03 in 10.0 mi ESE 16.1 mph - N/A   Clear
2:56 PM 26.6 °F 13.4 °F 15.8 °F 64% 30.01 in 10.0 mi ESE 18.4 mph - N/A   Scattered Clouds
3:15 PM 26.6 °F 13.1 °F 17.6 °F 69% 30.00 in 10.0 mi SE 19.6 mph - N/A   Scattered Clouds
3:35 PM 26.6 °F 13.4 °F 15.8 °F 64% 29.98 in 10.0 mi ESE 18.4 mph - N/A   Scattered Clouds
3:55 PM 26.6 °F 13.4 °F 17.6 °F 69% 29.97 in 10.0 mi ESE 18.4 mph 21.9 mph N/A   Mostly Cloudy
4:15 PM 26.6 °F 13.4 °F 17.6 °F 69% 29.97 in 10.0 mi ESE 18.4 mph - N/A   Unknown
4:36 PM 28.4 °F 15.4 °F 17.6 °F 64% 29.97 in 10.0 mi ESE 19.6 mph - N/A   Unknown
4:55 PM 26.6 °F 13.4 °F 17.6 °F 69% 29.97 in 10.0 mi SE 18.4 mph - N/A   Mostly Cloudy
5:15 PM 28.4 °F 15.4 °F 17.6 °F 64% 29.96 in 10.0 mi SE 19.6 mph 23.0 mph N/A   Scattered Clouds
5:36 PM 28.4 °F 16.2 °F 17.6 °F 64% 29.96 in 10.0 mi SE 17.3 mph - N/A   Clear
5:55 PM 26.6 °F 15.2 °F 17.6 °F 69% 29.95 in 10.0 mi SE 13.8 mph - N/A   Clear
6:15 PM 26.6 °F 14.7 °F 17.6 °F 69% 29.94 in 10.0 mi SE 15.0 mph - N/A   Clear
6:36 PM 26.6 °F 14.7 °F 19.4 °F 74% 29.94 in 10.0 mi SE 15.0 mph - N/A   Clear
6:55 PM 26.6 °F 15.2 °F 19.4 °F 74% 29.94 in 10.0 mi SE 13.8 mph - N/A   Clear
7:15 PM 26.6 °F 14.7 °F 19.4 °F 74% 29.93 in 10.0 mi ESE 15.0 mph - N/A   Scattered Clouds
7:36 PM 26.6 °F 14.3 °F 19.4 °F 74% 29.92 in 10.0 mi ESE 16.1 mph - N/A   Overcast
7:55 PM 26.6 °F 13.1 °F 21.2 °F 80% 29.92 in 10.0 mi ESE 19.6 mph - N/A   Overcast
8:15 PM 26.6 °F 13.1 °F 21.2 °F 80% 29.91 in 10.0 mi ESE 19.6 mph - N/A   Overcast
8:36 PM 26.6 °F 13.4 °F 21.2 °F 80% 29.90 in 10.0 mi ESE 18.4 mph - N/A   Overcast
8:55 PM 26.6 °F 13.4 °F 21.2 °F 80% 29.90 in 10.0 mi ESE 18.4 mph - N/A   Overcast
9:15 PM 26.6 °F 14.7 °F 21.2 °F 80% 29.91 in 10.0 mi SE 15.0 mph 21.9 mph N/A   Overcast
9:36 PM 28.4 °F 18.5 °F 21.2 °F 74% 29.91 in 10.0 mi SE 11.5 mph 18.4 mph N/A   Overcast
9:55 PM 28.4 °F 18.0 °F 21.2 °F 74% 29.90 in 10.0 mi SE 12.7 mph 17.3 mph N/A   Overcast
10:15 PM 28.4 °F 18.5 °F 21.2 °F 74% 29.89 in 10.0 mi SE 11.5 mph 16.1 mph N/A   Overcast
10:36 PM 28.4 °F 18.5 °F 21.2 °F 74% 29.89 in 10.0 mi SSE 11.5 mph 17.3 mph N/A   Overcast
10:55 PM 28.4 °F 18.0 °F 21.2 °F 74% 29.89 in 10.0 mi SSE 12.7 mph - N/A   Overcast
11:15 PM 28.4 °F 18.5 °F 21.2 °F 74% 29.89 in 10.0 mi SSE 11.5 mph 17.3 mph N/A   Overcast
11:35 PM 28.4 °F 17.0 °F 23.0 °F 80% 29.87 in 10.0 mi SSE 15.0 mph - N/A   Overcast
11:55 PM 28.4 °F 18.5 °F 23.0 °F 80% 29.86 in 10.0 mi SE 11.5 mph 19.6 mph N/A   Overcast